Time,TemperatureF,DewpointF,PressureIn,WindDirection,WindDirectionDegrees,WindSpeedMPH,WindSpeedGustMPH,Humidity,HourlyPrecipIn,Conditions,Clouds,dailyrainin,SoftwareType,DateUTC
2013-05-13 00:01:00,42.4,30.3,30.27,NW,315,4.0,4.0,62,0.00,,SCT065,0.00,VWS V13.01,2013-05-13 04:01:00,
2013-05-13 00:04:00,42.4,29.9,30.27,NNW,338,4.0,4.0,62,0.00,,SCT065,0.00,VWS V13.01,2013-05-13 04:04:00,
2013-05-13 00:09:00,42.0,30.1,30.26,NNW,338,4.0,4.0,62,0.00,,SCT065,0.00,VWS V13.01,2013-05-13 04:09:00,
2013-05-13 00:14:00,42.0,30.1,30.26,NW,315,4.0,4.0,62,0.00,,SCT065,0.00,VWS V13.01,2013-05-13 04:14:00,
2013-05-13 00:19:00,42.0,29.9,30.26,NW,315,4.0,4.0,63,0.00,,SCT065,0.00,VWS V13.01,2013-05-13 04:19:00,
2013-05-13 00:24:00,42.0,30.3,30.26,NW,315,4.0,4.0,63,0.00,,SCT065,0.00,VWS V13.01,2013-05-13 04:24:00,
2013-05-13 00:29:00,41.9,30.3,30.27,WNW,292,4.0,4.0,63,0.00,,SCT065,0.00,VWS V13.01,2013-05-13 04:29:00,
2013-05-13 00:34:00,41.9,30.2,30.26,WNW,292,4.0,4.0,63,0.00,,SCT065,0.00,VWS V13.01,2013-05-13 04:34:00,
2013-05-13 00:39:00,41.9,30.2,30.26,NW,315,4.0,4.0,63,0.00,,SCT065,0.00,VWS V13.01,2013-05-13 04:39:00,
2013-05-13 00:44:00,41.9,30.2,30.26,NW,315,4.0,4.0,63,0.00,,SCT065,0.00,VWS V13.01,2013-05-13 04:44:00,
2013-05-13 00:49:00,41.9,30.0,30.26,WNW,292,0.2,2.7,63,0.00,,SCT065,0.00,VWS V13.01,2013-05-13 04:49:00,
2013-05-13 00:54:00,41.9,30.2,30.26,NW,315,0.6,2.7,63,0.00,,SCT065,0.00,VWS V13.01,2013-05-13 04:54:00,
2013-05-13 00:59:00,41.5,30.2,30.26,NW,315,0.6,2.7,64,0.00,,SCT065,0.00,VWS V13.01,2013-05-13 04:59:00,
2013-05-13 01:04:00,41.5,29.9,30.26,NW,315,0.6,2.7,64,0.00,,SCT065,0.00,VWS V13.01,2013-05-13 05:04:00,
2013-05-13 01:09:00,41.0,29.9,30.26,NW,315,0.8,2.7,65,0.00,,SCT065,0.00,VWS V13.01,2013-05-13 05:09:00,
2013-05-13 01:14:00,41.0,30.0,30.26,NW,315,0.8,2.7,65,0.00,,BKN065,0.00,VWS V13.01,2013-05-13 05:14:00,
2013-05-13 01:19:00,40.8,29.8,30.26,NW,315,0.6,2.7,65,0.00,,BKN065,0.00,VWS V13.01,2013-05-13 05:19:00,
2013-05-13 01:24:00,40.6,29.6,30.26,NW,315,2.6,2.7,65,0.00,,BKN065,0.00,VWS V13.01,2013-05-13 05:24:00,
2013-05-13 01:29:00,40.2,29.8,30.26,WNW,292,2.6,2.7,66,0.00,,BKN065,0.00,VWS V13.01,2013-05-13 05:29:00,
2013-05-13 01:34:00,39.9,29.8,30.26,North,0,0.8,2.7,66,0.00,,BKN065,0.00,VWS V13.01,2013-05-13 05:34:00,
2013-05-13 01:39:00,39.9,29.5,30.26,NNW,338,3.3,3.3,66,0.00,,BKN065,0.00,VWS V13.01,2013-05-13 05:39:00,
2013-05-13 01:44:00,39.9,29.5,30.26,NNW,338,1.1,2.7,66,0.00,,CLR,0.00,VWS V13.01,2013-05-13 05:44:00,
2013-05-13 01:49:00,39.7,29.5,30.25,NW,315,8.0,8.0,66,0.00,,CLR,0.00,VWS V13.01,2013-05-13 05:49:00,
2013-05-13 01:55:00,39.7,29.5,30.25,West,270,0.6,2.7,65,0.00,,CLR,0.00,VWS V13.01,2013-05-13 05:55:00,
2013-05-13 02:00:00,39.7,28.9,30.25,NNW,338,0.6,2.7,65,0.00,,CLR,0.00,VWS V13.01,2013-05-13 06:00:00,
2013-05-13 02:05:00,39.7,28.9,30.25,WSW,248,0.6,2.7,65,0.00,,CLR,0.00,VWS V13.01,2013-05-13 06:05:00,
2013-05-13 02:10:00,39.7,28.7,30.25,North,0,0.6,2.7,65,0.00,,CLR,0.00,VWS V13.01,2013-05-13 06:10:00,
2013-05-13 02:15:00,39.5,29.1,30.25,North,0,0.6,2.7,66,0.00,,CLR,0.00,VWS V13.01,2013-05-13 06:15:00,
2013-05-13 02:20:00,39.3,28.9,30.25,WSW,248,0.6,2.7,66,0.00,,CLR,0.00,VWS V13.01,2013-05-13 06:20:00,
2013-05-13 02:25:00,39.2,29.3,30.24,NNE,22,0.6,2.7,67,0.00,,CLR,0.00,VWS V13.01,2013-05-13 06:25:00,
2013-05-13 02:30:00,39.2,29.0,30.24,NNE,22,0.6,2.7,67,0.00,,CLR,0.00,VWS V13.01,2013-05-13 06:30:00,
2013-05-13 02:35:00,39.0,28.8,30.23,NNE,22,0.6,2.7,67,0.00,,CLR,0.00,VWS V13.01,2013-05-13 06:35:00,
2013-05-13 02:40:00,38.8,28.8,30.23,NNE,22,0.6,2.7,67,0.00,,CLR,0.00,VWS V13.01,2013-05-13 06:40:00,
2013-05-13 02:45:00,38.8,28.4,30.23,NNE,22,0.6,2.7,67,0.00,,CLR,0.00,VWS V13.01,2013-05-13 06:45:00,
2013-05-13 02:50:00,38.4,28.8,30.23,ENE,68,0.6,2.7,67,0.00,,CLR,0.00,VWS V13.01,2013-05-13 06:50:00,
2013-05-13 02:55:00,38.3,28.5,30.24,ENE,68,0.6,2.7,68,0.00,,CLR,0.00,VWS V13.01,2013-05-13 06:55:00,
2013-05-13 03:00:00,38.1,28.6,30.24,ENE,68,0.6,2.7,69,0.00,,CLR,0.00,VWS V13.01,2013-05-13 07:00:00,
2013-05-13 03:05:00,37.9,28.3,30.24,ENE,68,0.6,2.7,68,0.00,,CLR,0.00,VWS V13.01,2013-05-13 07:05:00,
2013-05-13 03:10:00,37.5,28.3,30.23,ENE,68,0.6,2.7,69,0.00,,CLR,0.00,VWS V13.01,2013-05-13 07:10:00,
2013-05-13 03:15:00,37.5,28.0,30.23,ENE,68,0.6,2.7,69,0.00,,CLR,0.00,VWS V13.01,2013-05-13 07:15:00,
2013-05-13 03:21:00,37.2,28.0,30.23,ENE,68,0.6,2.7,69,0.00,,CLR,0.00,VWS V13.01,2013-05-13 07:21:00,
2013-05-13 03:26:00,37.2,28.0,30.23,ENE,68,0.6,2.7,69,0.00,,CLR,0.00,VWS V13.01,2013-05-13 07:26:00,
2013-05-13 03:31:00,37.0,28.3,30.24,ENE,68,0.6,2.7,70,0.00,,CLR,0.00,VWS V13.01,2013-05-13 07:31:00,
2013-05-13 03:36:00,37.0,28.1,30.24,ENE,68,0.6,2.7,70,0.00,,CLR,0.00,VWS V13.01,2013-05-13 07:36:00,
2013-05-13 03:41:00,37.0,28.3,30.24,NW,315,0.6,2.7,70,0.00,,CLR,0.00,VWS V13.01,2013-05-13 07:41:00,
2013-05-13 03:46:00,37.2,28.3,30.24,West,270,0.6,2.7,70,0.00,,CLR,0.00,VWS V13.01,2013-05-13 07:46:00,
2013-05-13 03:51:00,37.4,28.3,30.24,West,270,0.6,2.7,70,0.00,,CLR,0.00,VWS V13.01,2013-05-13 07:51:00,
2013-05-13 03:56:00,37.2,28.3,30.24,West,270,0.6,2.7,70,0.00,,CLR,0.00,VWS V13.01,2013-05-13 07:56:00,
2013-05-13 04:01:00,37.2,28.3,30.24,West,270,0.6,2.7,70,0.00,,CLR,0.00,VWS V13.01,2013-05-13 08:01:00,
2013-05-13 04:06:00,37.2,28.3,30.24,West,270,0.6,2.7,70,0.00,,CLR,0.00,VWS V13.01,2013-05-13 08:06:00,
2013-05-13 04:11:00,37.0,28.1,30.24,WSW,248,0.6,2.7,70,0.00,,CLR,0.00,VWS V13.01,2013-05-13 08:11:00,
2013-05-13 04:16:00,36.8,28.0,30.24,WSW,248,0.6,2.7,70,0.00,,CLR,0.00,VWS V13.01,2013-05-13 08:16:00,
2013-05-13 04:21:00,36.6,27.8,30.24,WSW,248,0.6,2.7,70,0.00,,CLR,0.00,VWS V13.01,2013-05-13 08:21:00,
2013-05-13 04:26:00,36.5,27.8,30.24,WSW,248,0.6,2.7,70,0.00,,CLR,0.00,VWS V13.01,2013-05-13 08:26:00,
2013-05-13 04:31:00,36.3,27.8,30.24,WSW,248,0.6,2.7,71,0.00,,CLR,0.00,VWS V13.01,2013-05-13 08:31:00,
2013-05-13 04:36:00,36.1,27.6,30.24,WSW,248,0.6,2.7,71,0.00,,CLR,0.00,VWS V13.01,2013-05-13 08:36:00,
2013-05-13 04:41:00,35.9,27.4,30.24,WSW,248,0.6,2.7,71,0.00,,CLR,0.00,VWS V13.01,2013-05-13 08:41:00,
2013-05-13 04:46:00,35.7,27.2,30.24,WSW,248,0.6,2.7,71,0.00,,CLR,0.00,VWS V13.01,2013-05-13 08:46:00,
2013-05-13 04:51:00,35.7,27.6,30.24,WSW,248,0.6,2.7,71,0.00,,CLR,0.00,VWS V13.01,2013-05-13 08:51:00,
2013-05-13 04:56:00,35.6,27.5,30.24,NNW,338,0.6,2.7,72,0.00,,CLR,0.00,VWS V13.01,2013-05-13 08:56:00,
2013-05-13 05:01:00,35.6,27.3,30.24,NNW,338,0.6,2.7,72,0.00,,CLR,0.00,VWS V13.01,2013-05-13 09:01:00,
2013-05-13 05:06:00,35.4,27.3,30.25,NNW,338,0.6,2.7,72,0.00,,CLR,0.00,VWS V13.01,2013-05-13 09:06:00,
2013-05-13 05:11:00,35.2,27.1,30.25,NNW,338,0.6,2.7,72,0.00,,CLR,0.00,VWS V13.01,2013-05-13 09:11:00,
2013-05-13 05:16:00,35.2,26.9,30.25,NNW,338,0.6,2.7,72,0.00,,CLR,0.00,VWS V13.01,2013-05-13 09:16:00,
2013-05-13 05:21:00,34.8,27.1,30.25,NNW,338,0.6,2.7,73,0.00,,CLR,0.00,VWS V13.01,2013-05-13 09:21:00,
2013-05-13 05:26:00,34.7,27.0,30.25,NNW,338,0.6,2.7,73,0.00,,CLR,0.00,VWS V13.01,2013-05-13 09:26:00,
2013-05-13 05:31:00,34.7,26.8,30.25,NNW,338,0.6,2.7,73,0.00,,CLR,0.00,VWS V13.01,2013-05-13 09:31:00,
2013-05-13 05:37:00,34.3,26.6,30.25,NNW,338,0.6,2.7,73,0.00,,CLR,0.00,VWS V13.01,2013-05-13 09:37:00,
2013-05-13 05:41:00,34.3,26.4,30.25,NNW,338,0.6,2.7,73,0.00,,CLR,0.00,VWS V13.01,2013-05-13 09:41:00,
2013-05-13 05:47:00,33.9,26.2,30.25,NNW,338,0.6,2.7,74,0.00,,CLR,0.00,VWS V13.01,2013-05-13 09:47:00,
2013-05-13 05:52:00,33.9,26.4,30.25,NNW,338,0.6,2.7,73,0.00,,CLR,0.00,VWS V13.01,2013-05-13 09:52:00,
2013-05-13 05:57:00,33.9,26.2,30.26,NNW,338,0.6,2.7,73,0.00,,CLR,0.00,VWS V13.01,2013-05-13 09:57:00,
2013-05-13 06:02:00,33.6,26.2,30.26,NNW,338,0.6,2.7,74,0.00,,CLR,0.00,VWS V13.01,2013-05-13 10:02:00,
2013-05-13 06:07:00,33.6,26.5,30.26,NNW,338,0.6,2.7,75,0.00,,CLR,0.00,VWS V13.01,2013-05-13 10:07:00,
2013-05-13 06:12:00,33.4,26.3,30.26,NNW,338,0.6,2.7,75,0.00,,CLR,0.00,VWS V13.01,2013-05-13 10:12:00,
2013-05-13 06:17:00,33.4,26.3,30.25,NNW,338,0.6,2.7,75,0.00,,CLR,0.00,VWS V13.01,2013-05-13 10:17:00,
2013-05-13 06:22:00,33.4,26.3,30.26,NNW,338,0.6,2.7,75,0.00,,CLR,0.00,VWS V13.01,2013-05-13 10:22:00,
2013-05-13 06:27:00,33.4,26.5,30.26,NNW,338,0.6,2.7,76,0.00,,CLR,0.00,VWS V13.01,2013-05-13 10:27:00,
2013-05-13 06:32:00,33.2,26.5,30.26,NNW,338,0.6,2.7,76,0.00,,CLR,0.00,VWS V13.01,2013-05-13 10:32:00,
2013-05-13 06:37:00,33.2,26.3,30.27,NNW,338,0.6,2.7,76,0.00,,CLR,0.00,VWS V13.01,2013-05-13 10:37:00,
2013-05-13 06:42:00,33.2,26.5,30.27,NNW,338,0.6,2.7,76,0.00,,CLR,0.00,VWS V13.01,2013-05-13 10:42:00,
2013-05-13 06:47:00,33.2,26.5,30.27,NNW,338,0.6,2.7,76,0.00,,CLR,0.00,VWS V13.01,2013-05-13 10:47:00,
2013-05-13 06:52:00,33.2,26.5,30.27,NNW,338,0.6,2.7,76,0.00,,CLR,0.00,VWS V13.01,2013-05-13 10:52:00,
2013-05-13 06:57:00,33.4,26.5,30.27,NNW,338,0.6,2.7,76,0.00,,CLR,0.00,VWS V13.01,2013-05-13 10:57:00,
2013-05-13 07:02:00,33.4,27.0,30.28,NNW,338,0.6,2.7,76,0.00,,CLR,0.00,VWS V13.01,2013-05-13 11:02:00,
2013-05-13 07:07:00,33.6,27.2,30.28,NNW,338,0.6,2.7,77,0.00,,CLR,0.00,VWS V13.01,2013-05-13 11:07:00,
2013-05-13 07:12:00,33.6,27.2,30.28,NNW,338,0.6,2.7,77,0.00,,CLR,0.00,VWS V13.01,2013-05-13 11:12:00,
2013-05-13 07:17:00,33.9,27.5,30.28,NNW,338,0.6,2.7,77,0.00,,CLR,0.00,VWS V13.01,2013-05-13 11:17:00,
2013-05-13 07:22:00,34.1,27.9,30.28,NNW,338,0.6,2.7,77,0.00,,CLR,0.00,VWS V13.01,2013-05-13 11:22:00,
2013-05-13 07:27:00,34.3,28.0,30.28,NNW,338,0.6,2.7,77,0.00,,CLR,0.00,VWS V13.01,2013-05-13 11:27:00,
2013-05-13 07:32:00,34.7,28.3,30.28,NNW,338,0.6,2.7,77,0.00,,CLR,0.00,VWS V13.01,2013-05-13 11:32:00,
2013-05-13 07:37:00,35.2,28.3,30.28,NNW,338,0.6,2.7,78,0.00,,CLR,0.00,VWS V13.01,2013-05-13 11:37:00,
2013-05-13 07:42:00,35.6,29.2,30.28,NW,315,0.6,2.7,77,0.00,,CLR,0.00,VWS V13.01,2013-05-13 11:42:00,
2013-05-13 07:48:00,35.9,29.2,30.28,West,270,0.6,2.7,78,0.00,,CLR,0.00,VWS V13.01,2013-05-13 11:48:00,
2013-05-13 07:53:00,35.7,29.6,30.29,West,270,0.6,2.7,77,0.00,,CLR,0.00,VWS V13.01,2013-05-13 11:53:00,
2013-05-13 07:58:00,36.3,29.6,30.29,West,270,0.6,2.7,77,0.00,,CLR,0.00,VWS V13.01,2013-05-13 11:58:00,
2013-05-13 08:03:00,36.5,29.7,30.29,West,270,0.6,2.7,76,0.00,,CLR,0.00,VWS V13.01,2013-05-13 12:03:00,
2013-05-13 08:08:00,36.6,30.1,30.29,North,0,0.6,2.7,76,0.00,,CLR,0.00,VWS V13.01,2013-05-13 12:08:00,
2013-05-13 08:13:00,37.2,30.4,30.29,WSW,248,0.6,2.7,76,0.00,,SCT065,0.00,VWS V13.01,2013-05-13 12:13:00,
2013-05-13 08:18:00,37.4,30.8,30.29,West,270,0.6,2.7,76,0.00,,SCT065,0.00,VWS V13.01,2013-05-13 12:18:00,
2013-05-13 08:23:00,37.9,30.7,30.29,NW,315,0.6,2.7,75,0.00,,SCT065,0.00,VWS V13.01,2013-05-13 12:23:00,
2013-05-13 08:28:00,38.1,31.2,30.29,NW,315,4.2,4.2,75,0.00,,SCT065,0.00,VWS V13.01,2013-05-13 12:28:00,
2013-05-13 08:33:00,38.4,31.8,30.30,NW,315,4.2,4.2,75,0.00,,SCT065,0.00,VWS V13.01,2013-05-13 12:33:00,
2013-05-13 08:38:00,39.0,31.7,30.30,WNW,292,3.3,3.3,75,0.00,,SCT065,0.00,VWS V13.01,2013-05-13 12:38:00,
2013-05-13 08:43:00,39.9,31.8,30.30,NNW,338,3.3,3.3,74,0.00,,SCT065,0.00,VWS V13.01,2013-05-13 12:43:00,
2013-05-13 08:48:00,40.4,32.3,30.31,NW,315,1.1,2.7,73,0.00,,SCT065,0.00,VWS V13.01,2013-05-13 12:48:00,
2013-05-13 08:53:00,40.8,32.4,30.31,NNW,338,4.0,4.0,73,0.00,,SCT065,0.00,VWS V13.01,2013-05-13 12:53:00,
2013-05-13 08:58:00,40.4,32.7,30.31,WNW,292,0.4,2.7,73,0.00,,SCT065,0.00,VWS V13.01,2013-05-13 12:58:00,
2013-05-13 09:04:00,41.1,32.8,30.31,NW,315,2.6,2.7,71,0.00,,SCT065,0.00,VWS V13.01,2013-05-13 13:04:00,
2013-05-13 09:09:00,41.1,32.7,30.31,NW,315,3.3,3.3,71,0.00,,SCT065,0.00,VWS V13.01,2013-05-13 13:09:00,
2013-05-13 09:14:00,42.0,32.7,30.31,West,270,3.3,3.3,69,0.00,,CLR,0.00,VWS V13.01,2013-05-13 13:14:00,
2013-05-13 09:19:00,42.0,33.0,30.31,WNW,292,6.2,6.2,69,0.00,,CLR,0.00,VWS V13.01,2013-05-13 13:19:00,
2013-05-13 09:24:00,42.6,33.0,30.31,WSW,248,4.6,4.6,68,0.00,,CLR,0.00,VWS V13.01,2013-05-13 13:24:00,
2013-05-13 09:29:00,42.6,32.7,30.31,North,0,4.6,4.6,68,0.00,,CLR,0.00,VWS V13.01,2013-05-13 13:29:00,
2013-05-13 09:34:00,42.9,32.3,30.31,NNW,338,4.6,4.6,67,0.00,,CLR,0.00,VWS V13.01,2013-05-13 13:34:00,
2013-05-13 09:39:00,42.9,32.7,30.31,NNE,22,4.9,4.9,66,0.00,,CLR,0.00,VWS V13.01,2013-05-13 13:39:00,
2013-05-13 09:44:00,42.9,32.7,30.31,NW,315,4.9,4.9,67,0.00,,BKN070,0.00,VWS V13.01,2013-05-13 13:44:00,
2013-05-13 09:49:00,42.9,33.1,30.32,NNE,22,0.4,2.7,67,0.00,,BKN070,0.00,VWS V13.01,2013-05-13 13:49:00,
2013-05-13 09:54:00,43.5,33.1,30.32,NW,315,0.6,2.7,66,0.00,,BKN070,0.00,VWS V13.01,2013-05-13 13:54:00,
2013-05-13 09:59:00,43.5,32.9,30.32,WSW,248,5.8,5.8,66,0.00,,BKN070,0.00,VWS V13.01,2013-05-13 13:59:00,
2013-05-13 10:04:00,43.5,32.5,30.32,NNW,338,3.1,3.1,65,0.00,,BKN070,0.00,VWS V13.01,2013-05-13 14:04:00,
2013-05-13 10:09:00,43.5,32.3,30.33,West,270,3.8,3.8,65,0.00,,BKN070,0.00,VWS V13.01,2013-05-13 14:09:00,
2013-05-13 10:14:00,43.3,32.5,30.33,WSW,248,2.4,2.7,65,0.00,,BKN070,0.00,VWS V13.01,2013-05-13 14:14:00,
2013-05-13 10:19:00,43.1,33.3,30.32,WNW,292,6.7,6.7,66,0.00,,BKN070,0.00,VWS V13.01,2013-05-13 14:19:00,
2013-05-13 10:25:00,43.5,33.3,30.32,NW,315,1.5,2.7,66,0.00,,BKN070,0.00,VWS V13.01,2013-05-13 14:25:00,
2013-05-13 10:30:00,43.7,32.8,30.33,WSW,248,0.2,2.7,65,0.00,,BKN070,0.00,VWS V13.01,2013-05-13 14:30:00,
2013-05-13 10:35:00,44.2,32.7,30.33,WNW,292,0.8,2.7,66,0.00,,BKN070,0.00,VWS V13.01,2013-05-13 14:35:00,
2013-05-13 10:40:00,44.2,33.4,30.33,WNW,292,6.2,6.2,66,0.00,,BKN070,0.00,VWS V13.01,2013-05-13 14:40:00,
2013-05-13 10:45:00,44.7,33.4,30.33,NNW,338,3.3,3.3,64,0.00,,SCT055,0.00,VWS V13.01,2013-05-13 14:45:00,
2013-05-13 10:50:00,45.1,33.3,30.33,NNW,338,8.2,8.2,63,0.00,,SCT055,0.00,VWS V13.01,2013-05-13 14:50:00,
2013-05-13 10:55:00,45.1,33.3,30.33,WSW,248,6.7,6.7,63,0.00,,SCT055,0.00,VWS V13.01,2013-05-13 14:55:00,
2013-05-13 11:00:00,45.5,33.3,30.33,NW,315,5.3,5.3,62,0.00,,SCT055,0.00,VWS V13.01,2013-05-13 15:00:00,
2013-05-13 11:05:00,45.5,33.3,30.33,WNW,292,6.7,6.7,62,0.00,,SCT055,0.00,VWS V13.01,2013-05-13 15:05:00,
2013-05-13 11:10:00,45.8,33.1,30.33,NNW,338,3.3,3.3,60,0.00,,SCT065,0.00,VWS V13.01,2013-05-13 15:10:00,
2013-05-13 11:15:00,45.6,32.9,30.33,North,0,6.4,6.4,61,0.00,,SCT065,0.00,VWS V13.01,2013-05-13 15:15:00,
2013-05-13 11:20:00,45.8,32.9,30.33,WSW,248,5.8,5.8,61,0.00,,SCT065,0.00,VWS V13.01,2013-05-13 15:20:00,
2013-05-13 11:25:00,46.0,32.5,30.33,WSW,248,3.5,3.5,60,0.00,,SCT065,0.00,VWS V13.01,2013-05-13 15:25:00,
2013-05-13 11:31:00,46.0,32.9,30.33,NNW,338,4.6,4.6,60,0.00,,SCT065,0.00,VWS V13.01,2013-05-13 15:31:00,
2013-05-13 11:36:00,46.0,33.1,30.32,NNW,338,4.0,4.0,60,0.00,,SCT065,0.00,VWS V13.01,2013-05-13 15:36:00,
2013-05-13 11:41:00,46.2,32.5,30.33,WNW,292,6.4,6.4,60,0.00,,OVC080,0.00,VWS V13.01,2013-05-13 15:41:00,
2013-05-13 11:46:00,45.6,31.7,30.33,NW,315,6.2,6.2,58,0.00,,OVC080,0.00,VWS V13.01,2013-05-13 15:46:00,
2013-05-13 11:51:00,45.3,31.4,30.33,NW,315,2.4,2.7,59,0.00,,OVC080,0.00,VWS V13.01,2013-05-13 15:51:00,
2013-05-13 11:56:00,45.1,30.8,30.33,NW,315,7.3,7.3,57,0.00,,OVC080,0.00,VWS V13.01,2013-05-13 15:56:00,
2013-05-13 12:01:00,45.5,31.6,30.33,WNW,292,2.9,2.9,58,0.00,,OVC080,0.00,VWS V13.01,2013-05-13 16:01:00,
2013-05-13 12:06:00,46.2,32.2,30.32,WSW,248,3.8,3.8,57,0.00,,OVC080,0.00,VWS V13.01,2013-05-13 16:06:00,
2013-05-13 12:11:00,46.5,31.7,30.32,SW,225,7.1,7.1,57,0.00,,BKN080,0.00,VWS V13.01,2013-05-13 16:11:00,
2013-05-13 12:16:00,46.9,31.6,30.32,NW,315,9.6,9.6,55,0.00,,BKN080,0.00,VWS V13.01,2013-05-13 16:16:00,
2013-05-13 12:21:00,47.1,31.5,30.32,West,270,8.0,8.0,54,0.00,,BKN080,0.00,VWS V13.01,2013-05-13 16:21:00,
2013-05-13 12:26:00,47.1,31.3,30.32,WNW,292,2.6,2.7,54,0.00,,BKN080,0.00,VWS V13.01,2013-05-13 16:26:00,
2013-05-13 12:31:00,46.9,31.0,30.32,West,270,3.3,3.3,54,0.00,,BKN080,0.00,VWS V13.01,2013-05-13 16:31:00,
2013-05-13 12:36:00,46.7,31.0,30.32,NNW,338,1.7,2.7,54,0.00,,BKN080,0.00,VWS V13.01,2013-05-13 16:36:00,
2013-05-13 12:41:00,47.1,31.0,30.32,NNW,338,6.0,6.0,52,0.00,,BKN080,0.00,VWS V13.01,2013-05-13 16:41:00,
2013-05-13 12:46:00,47.4,30.6,30.31,NW,315,8.9,8.9,52,0.00,,BKN080,0.00,VWS V13.01,2013-05-13 16:46:00,
2013-05-13 12:52:00,47.4,30.2,30.31,West,270,6.2,6.2,52,0.00,,BKN080,0.00,VWS V13.01,2013-05-13 16:52:00,
2013-05-13 12:57:00,47.1,29.9,30.31,SW,225,5.3,5.3,50,0.00,,BKN080,0.00,VWS V13.01,2013-05-13 16:57:00,
2013-05-13 13:02:00,47.1,29.6,30.31,West,270,5.1,5.1,50,0.00,,BKN080,0.00,VWS V13.01,2013-05-13 17:02:00,
2013-05-13 13:07:00,47.3,29.6,30.30,North,0,4.0,4.0,50,0.00,,BKN080,0.00,VWS V13.01,2013-05-13 17:07:00,
2013-05-13 13:12:00,47.3,29.6,30.31,NW,315,10.5,10.5,50,0.00,,BKN085,0.00,VWS V13.01,2013-05-13 17:12:00,
2013-05-13 13:17:00,47.4,29.7,30.30,NW,315,3.3,3.3,50,0.00,,BKN085,0.00,VWS V13.01,2013-05-13 17:17:00,
2013-05-13 13:22:00,48.0,31.0,30.30,NNW,338,10.7,10.7,51,0.00,,BKN085,0.00,VWS V13.01,2013-05-13 17:22:00,
2013-05-13 13:27:00,48.7,31.2,30.30,WNW,292,12.5,12.5,50,0.00,,BKN085,0.00,VWS V13.01,2013-05-13 17:27:00,
2013-05-13 13:32:00,49.1,31.2,30.30,NW,315,9.6,9.6,50,0.00,,BKN085,0.00,VWS V13.01,2013-05-13 17:32:00,
2013-05-13 13:37:00,49.2,32.2,30.30,NW,315,6.2,6.2,51,0.00,,BKN085,0.00,VWS V13.01,2013-05-13 17:37:00,
2013-05-13 13:42:00,49.6,31.7,30.30,NNW,338,4.4,4.4,52,0.00,,BKN085,0.00,VWS V13.01,2013-05-13 17:42:00,
2013-05-13 13:47:00,49.6,31.7,30.30,NW,315,8.7,8.7,52,0.00,,BKN085,0.00,VWS V13.01,2013-05-13 17:47:00,
2013-05-13 13:52:00,49.6,31.7,30.30,NNW,338,0.8,2.7,50,0.00,,BKN085,0.00,VWS V13.01,2013-05-13 17:52:00,
2013-05-13 13:57:00,49.6,30.9,30.30,NW,315,4.2,4.2,49,0.00,,BKN085,0.00,VWS V13.01,2013-05-13 17:57:00,
2013-05-13 14:02:00,49.2,30.8,30.29,NW,315,0.6,2.7,49,0.00,,BKN085,0.00,VWS V13.01,2013-05-13 18:02:00,
2013-05-13 14:07:00,48.7,30.6,30.29,West,270,6.4,6.4,49,0.00,,BKN085,0.00,VWS V13.01,2013-05-13 18:07:00,
2013-05-13 14:12:00,48.5,30.4,30.29,NW,315,4.6,4.6,49,0.00,,OVC075,0.00,VWS V13.01,2013-05-13 18:12:00,
2013-05-13 14:17:00,48.2,30.0,30.29,WNW,292,6.2,6.2,50,0.00,,OVC075,0.00,VWS V13.01,2013-05-13 18:17:00,
2013-05-13 14:22:00,48.2,30.3,30.29,NNW,338,0.8,2.7,50,0.00,,OVC075,0.00,VWS V13.01,2013-05-13 18:22:00,
2013-05-13 14:28:00,48.0,30.8,30.29,NW,315,1.3,2.7,51,0.00,,OVC075,0.00,VWS V13.01,2013-05-13 18:28:00,
2013-05-13 14:33:00,48.3,31.9,30.29,NW,315,5.1,5.1,52,0.00,,OVC075,0.00,VWS V13.01,2013-05-13 18:33:00,
2013-05-13 14:38:00,49.2,31.6,30.29,West,270,5.1,5.1,52,0.00,,OVC075,0.00,VWS V13.01,2013-05-13 18:38:00,
2013-05-13 14:43:00,49.6,33.4,30.29,NW,315,7.6,7.6,52,0.00,,BKN090,0.00,VWS V13.01,2013-05-13 18:43:00,
2013-05-13 14:48:00,50.1,32.7,30.29,NNW,338,1.1,2.7,51,0.00,,BKN090,0.00,VWS V13.01,2013-05-13 18:48:00,
2013-05-13 14:53:00,50.1,33.6,30.29,North,0,1.3,2.7,51,0.00,,BKN090,0.00,VWS V13.01,2013-05-13 18:53:00,
2013-05-13 14:58:00,50.5,32.7,30.29,WSW,248,7.1,7.1,53,0.00,,BKN090,0.00,VWS V13.01,2013-05-13 18:58:00,
2013-05-13 15:03:00,50.5,32.2,30.29,WSW,248,8.0,8.0,51,0.00,,BKN090,0.00,VWS V13.01,2013-05-13 19:03:00,
2013-05-13 15:08:00,50.5,31.7,30.29,NW,315,1.7,2.7,51,0.00,,BKN090,0.00,VWS V13.01,2013-05-13 19:08:00,
2013-05-13 15:13:00,49.6,31.1,30.29,WSW,248,7.6,7.6,50,0.00,,OVC095,0.00,VWS V13.01,2013-05-13 19:13:00,
2013-05-13 15:18:00,48.7,31.1,30.28,West,270,3.1,3.1,50,0.00,,OVC095,0.00,VWS V13.01,2013-05-13 19:18:00,
2013-05-13 15:23:00,48.7,31.9,30.29,NW,315,8.7,8.7,51,0.00,,OVC095,0.00,VWS V13.01,2013-05-13 19:23:00,
2013-05-13 15:28:00,49.2,31.7,30.28,WSW,248,2.4,2.7,50,0.00,,OVC095,0.00,VWS V13.01,2013-05-13 19:28:00,
2013-05-13 15:33:00,49.2,32.2,30.28,NNW,338,2.6,2.7,50,0.00,,OVC095,0.00,VWS V13.01,2013-05-13 19:33:00,
2013-05-13 15:38:00,49.6,32.2,30.28,NW,315,8.7,8.7,52,0.00,,OVC095,0.00,VWS V13.01,2013-05-13 19:38:00,
2013-05-13 15:43:00,49.6,31.4,30.29,NNW,338,6.7,6.7,52,0.00,,OVC080,0.00,VWS V13.01,2013-05-13 19:43:00,
2013-05-13 15:48:00,49.1,31.4,30.29,NE,45,3.5,3.5,51,0.00,,OVC080,0.00,VWS V13.01,2013-05-13 19:48:00,
2013-05-13 15:53:00,49.1,32.6,30.29,WNW,292,9.6,9.6,51,0.00,,OVC080,0.00,VWS V13.01,2013-05-13 19:53:00,
2013-05-13 15:58:00,48.5,32.3,30.29,NW,315,0.6,2.7,54,0.00,,OVC080,0.00,VWS V13.01,2013-05-13 19:58:00,
2013-05-13 16:03:00,48.3,32.3,30.29,North,0,6.7,6.7,53,0.00,,OVC080,0.00,VWS V13.01,2013-05-13 20:03:00,
2013-05-13 16:08:00,48.7,32.9,30.29,NW,315,2.0,2.7,55,0.00,,OVC080,0.00,VWS V13.01,2013-05-13 20:08:00,
2013-05-13 16:13:00,48.7,33.7,30.28,NW,315,7.1,7.1,55,0.00,,BKN080,0.00,VWS V13.01,2013-05-13 20:13:00,
2013-05-13 16:19:00,49.6,33.3,30.28,WNW,292,4.0,4.0,53,0.00,,BKN080,0.00,VWS V13.01,2013-05-13 20:19:00,
2013-05-13 16:24:00,49.6,33.3,30.28,WSW,248,5.1,5.1,53,0.00,,BKN080,0.00,VWS V13.01,2013-05-13 20:24:00,
2013-05-13 16:29:00,49.6,34.1,30.27,NNE,22,0.6,2.7,53,0.00,,BKN080,0.00,VWS V13.01,2013-05-13 20:29:00,
2013-05-13 16:34:00,49.6,34.4,30.28,WSW,248,5.5,5.5,53,0.00,,BKN090,0.00,VWS V13.01,2013-05-13 20:34:00,
2013-05-13 16:39:00,50.9,33.0,30.27,NNW,338,5.3,5.3,52,0.00,,BKN090,0.00,VWS V13.01,2013-05-13 20:39:00,
2013-05-13 16:44:00,50.9,33.0,30.27,WSW,248,6.2,6.2,50,0.00,,BKN090,0.00,VWS V13.01,2013-05-13 20:44:00,
2013-05-13 16:49:00,50.9,32.5,30.27,West,270,5.1,5.1,49,0.00,,BKN090,0.00,VWS V13.01,2013-05-13 20:49:00,
2013-05-13 16:54:00,51.0,31.5,30.27,WSW,248,4.0,4.0,49,0.00,,BKN090,0.00,VWS V13.01,2013-05-13 20:54:00,
2013-05-13 16:59:00,51.0,32.0,30.28,WNW,292,2.6,2.7,49,0.00,,BKN090,0.00,VWS V13.01,2013-05-13 20:59:00,
2013-05-13 17:04:00,50.9,32.0,30.27,NNW,338,3.5,3.5,49,0.00,,BKN090,0.00,VWS V13.01,2013-05-13 21:04:00,
2013-05-13 17:09:00,50.5,32.0,30.27,North,0,2.6,2.7,49,0.00,,BKN090,0.00,VWS V13.01,2013-05-13 21:09:00,
2013-05-13 17:14:00,50.1,31.9,30.27,NW,315,3.1,3.1,50,0.00,,BKN090,0.00,VWS V13.01,2013-05-13 21:14:00,
2013-05-13 17:19:00,49.2,31.7,30.28,NNE,22,4.2,4.2,51,0.00,,BKN090,0.00,VWS V13.01,2013-05-13 21:19:00,
2013-05-13 17:24:00,48.9,31.9,30.28,WSW,248,6.7,6.7,50,0.00,,BKN090,0.00,VWS V13.01,2013-05-13 21:24:00,
2013-05-13 17:30:00,48.2,31.9,30.28,NW,315,5.1,5.1,51,0.00,,BKN090,0.00,VWS V13.01,2013-05-13 21:30:00,
2013-05-13 17:35:00,48.0,31.1,30.28,North,0,5.1,5.1,52,0.00,,BKN090,0.00,VWS V13.01,2013-05-13 21:35:00,
2013-05-13 17:40:00,47.4,31.1,30.28,NW,315,4.9,4.9,54,0.00,,BKN090,0.00,VWS V13.01,2013-05-13 21:40:00,
2013-05-13 17:45:00,47.4,31.8,30.28,NW,315,5.8,5.8,54,0.00,,BKN100,0.00,VWS V13.01,2013-05-13 21:45:00,
2013-05-13 17:50:00,47.1,31.8,30.28,NNW,338,5.8,5.8,55,0.00,,BKN100,0.00,VWS V13.01,2013-05-13 21:50:00,
2013-05-13 17:55:00,47.1,32.2,30.28,NW,315,3.1,3.1,55,0.00,,BKN100,0.00,VWS V13.01,2013-05-13 21:55:00,
2013-05-13 18:00:00,47.1,31.9,30.28,NNW,338,5.8,5.8,55,0.00,,BKN100,0.00,VWS V13.01,2013-05-13 22:00:00,
2013-05-13 18:05:00,46.5,32.2,30.29,NW,315,6.2,6.2,56,0.00,,BKN080,0.00,VWS V13.01,2013-05-13 22:05:00,
2013-05-13 18:10:00,46.2,33.5,30.28,NNE,22,2.6,2.7,58,0.00,,OVC070,0.00,VWS V13.01,2013-05-13 22:10:00,
2013-05-13 18:15:00,46.5,33.5,30.29,NNE,22,0.8,2.7,62,0.00,,OVC070,0.00,VWS V13.01,2013-05-13 22:15:00,
2013-05-13 18:20:00,46.5,34.6,30.29,South,180,1.7,2.7,63,0.00,,OVC070,0.00,VWS V13.01,2013-05-13 22:20:00,
2013-05-13 18:25:00,46.2,34.3,30.29,NNE,22,6.7,6.7,63,0.00,,OVC070,0.00,VWS V13.01,2013-05-13 22:25:00,
2013-05-13 18:30:00,45.6,34.5,30.29,North,0,6.7,6.7,64,0.00,,OVC070,0.00,VWS V13.01,2013-05-13 22:30:00,
2013-05-13 18:35:00,45.3,34.2,30.29,NE,45,0.8,2.7,65,0.00,,OVC070,0.00,VWS V13.01,2013-05-13 22:35:00,
2013-05-13 18:40:00,44.9,33.7,30.30,NNE,22,0.2,2.7,65,0.00,,BKN080,0.00,VWS V13.01,2013-05-13 22:40:00,
2013-05-13 18:45:00,44.4,33.8,30.29,NNE,22,0.4,2.7,66,0.00,,BKN080,0.00,VWS V13.01,2013-05-13 22:45:00,
2013-05-13 18:51:00,43.8,33.6,30.30,NW,315,3.1,3.1,67,0.00,,BKN080,0.00,VWS V13.01,2013-05-13 22:51:00,
2013-05-13 18:56:00,43.8,33.7,30.30,North,0,1.5,2.7,67,0.00,,BKN080,0.00,VWS V13.01,2013-05-13 22:56:00,
2013-05-13 19:01:00,43.8,34.0,30.30,North,0,1.1,2.7,67,0.00,,BKN080,0.00,VWS V13.01,2013-05-13 23:01:00,
2013-05-13 19:06:00,42.9,33.8,30.30,West,270,5.3,5.3,70,0.00,,BKN080,0.00,VWS V13.01,2013-05-13 23:06:00,
2013-05-13 19:11:00,42.6,33.9,30.30,North,0,5.3,5.3,71,0.00,,BKN080,0.00,VWS V13.01,2013-05-13 23:11:00,
2013-05-13 19:16:00,42.9,34.5,30.30,North,0,5.3,5.3,72,0.00,,BKN080,0.00,VWS V13.01,2013-05-13 23:16:00,
2013-05-13 19:21:00,43.1,34.9,30.30,North,0,5.3,5.3,72,0.00,,BKN080,0.00,VWS V13.01,2013-05-13 23:21:00,
2013-05-13 19:26:00,43.5,35.1,30.30,North,0,5.3,5.3,72,0.00,,BKN080,0.00,VWS V13.01,2013-05-13 23:26:00,
2013-05-13 19:31:00,43.5,35.1,30.30,North,0,5.3,5.3,72,0.00,,BKN080,0.00,VWS V13.01,2013-05-13 23:31:00,
2013-05-13 19:36:00,43.5,35.1,30.30,North,0,5.3,5.3,72,0.00,,OVC080,0.00,VWS V13.01,2013-05-13 23:36:00,
2013-05-13 19:41:00,43.3,35.1,30.30,North,0,5.3,5.3,72,0.00,,OVC080,0.00,VWS V13.01,2013-05-13 23:41:00,
2013-05-13 19:46:00,43.3,35.1,30.30,North,0,5.3,5.3,72,0.00,,OVC080,0.00,VWS V13.01,2013-05-13 23:46:00,
2013-05-13 19:51:00,43.3,34.7,30.30,NNE,22,0.8,2.7,72,0.00,,OVC080,0.00,VWS V13.01,2013-05-13 23:51:00,
2013-05-13 19:56:00,43.1,34.5,30.30,NNE,22,2.9,2.9,72,0.00,,OVC080,0.00,VWS V13.01,2013-05-13 23:56:00,
2013-05-13 20:01:00,42.9,34.8,30.31,NNE,22,2.9,2.9,73,0.00,,OVC080,0.00,VWS V13.01,2013-05-14 00:01:00,
2013-05-13 20:06:00,42.6,34.6,30.31,NNE,22,2.9,2.9,73,0.00,,OVC080,0.00,VWS V13.01,2013-05-14 00:06:00,
2013-05-13 20:11:00,42.6,34.6,30.32,WNW,292,1.1,2.7,73,0.00,,BKN085,0.00,VWS V13.01,2013-05-14 00:11:00,
2013-05-13 20:16:00,42.4,34.4,30.31,NW,315,0.4,2.7,73,0.00,,BKN085,0.00,VWS V13.01,2013-05-14 00:16:00,
2013-05-13 20:21:00,42.0,34.0,30.31,NW,315,0.4,2.7,73,0.00,,BKN085,0.00,VWS V13.01,2013-05-14 00:21:00,
2013-05-13 20:26:00,42.0,33.7,30.31,NW,315,0.4,2.7,73,0.00,,BKN085,0.00,VWS V13.01,2013-05-14 00:26:00,
2013-05-13 20:31:00,42.0,34.0,30.31,NW,315,0.4,2.7,73,0.00,,BKN085,0.00,VWS V13.01,2013-05-14 00:31:00,
2013-05-13 20:36:00,41.5,33.8,30.31,NW,315,0.4,2.7,74,0.00,,BKN085,0.00,VWS V13.01,2013-05-14 00:36:00,
2013-05-13 20:41:00,41.3,33.7,30.31,NW,315,0.4,2.7,74,0.00,,BKN085,0.00,VWS V13.01,2013-05-14 00:41:00,
2013-05-13 20:46:00,41.0,33.5,30.31,NW,315,0.4,2.7,75,0.00,,BKN085,0.00,VWS V13.01,2013-05-14 00:46:00,
2013-05-13 20:51:00,40.8,33.5,30.31,NW,315,0.4,2.7,75,0.00,,BKN085,0.00,VWS V13.01,2013-05-14 00:51:00,
2013-05-13 20:56:00,40.8,33.3,30.32,NW,315,0.4,2.7,75,0.00,,BKN085,0.00,VWS V13.01,2013-05-14 00:56:00,
2013-05-13 21:01:00,40.4,32.9,30.32,NW,315,0.4,2.7,75,0.00,,BKN085,0.00,VWS V13.01,2013-05-14 01:01:00,
2013-05-13 21:06:00,40.2,33.2,30.32,NW,315,0.4,2.7,75,0.00,,SCT100,0.00,VWS V13.01,2013-05-14 01:06:00,
2013-05-13 21:11:00,39.9,33.0,30.32,NW,315,0.4,2.7,76,0.00,,SCT100,0.00,VWS V13.01,2013-05-14 01:11:00,
2013-05-13 21:16:00,39.7,33.0,30.33,NW,315,0.4,2.7,76,0.00,,SCT100,0.00,VWS V13.01,2013-05-14 01:16:00,
2013-05-13 21:21:00,39.7,32.6,30.32,NW,315,0.4,2.7,76,0.00,,SCT100,0.00,VWS V13.01,2013-05-14 01:21:00,
2013-05-13 21:26:00,39.7,32.4,30.32,NW,315,0.4,2.7,76,0.00,,SCT100,0.00,VWS V13.01,2013-05-14 01:26:00,
2013-05-13 21:31:00,39.7,32.1,30.32,NW,315,0.4,2.7,76,0.00,,SCT100,0.00,VWS V13.01,2013-05-14 01:31:00,
2013-05-13 21:36:00,39.0,32.4,30.33,NW,315,0.4,2.7,76,0.00,,SCT100,0.00,VWS V13.01,2013-05-14 01:36:00,
2013-05-13 21:41:00,39.0,32.4,30.33,NW,315,0.4,2.7,77,0.00,,CLR,0.00,VWS V13.01,2013-05-14 01:41:00,
2013-05-13 21:46:00,38.8,32.2,30.33,NW,315,0.4,2.7,77,0.00,,CLR,0.00,VWS V13.01,2013-05-14 01:46:00,
2013-05-13 21:51:00,38.8,32.2,30.33,NW,315,0.4,2.7,77,0.00,,CLR,0.00,VWS V13.01,2013-05-14 01:51:00,
2013-05-13 21:56:00,38.8,32.2,30.33,NW,315,0.4,2.7,77,0.00,,CLR,0.00,VWS V13.01,2013-05-14 01:56:00,
2013-05-13 22:01:00,38.4,31.8,30.33,NW,315,0.4,2.7,77,0.00,,CLR,0.00,VWS V13.01,2013-05-14 02:01:00,
2013-05-13 22:06:00,38.4,32.2,30.34,NW,315,0.4,2.7,77,0.00,,CLR,0.00,VWS V13.01,2013-05-14 02:06:00,
2013-05-13 22:11:00,38.3,32.0,30.34,NW,315,0.4,2.7,78,0.00,,CLR,0.00,VWS V13.01,2013-05-14 02:11:00,
2013-05-13 22:16:00,38.3,32.0,30.34,NW,315,0.4,2.7,78,0.00,,CLR,0.00,VWS V13.01,2013-05-14 02:16:00,
2013-05-13 22:21:00,38.1,31.9,30.35,NW,315,0.4,2.7,78,0.00,,CLR,0.00,VWS V13.01,2013-05-14 02:21:00,
2013-05-13 22:26:00,37.9,31.7,30.34,NW,315,0.4,2.7,78,0.00,,CLR,0.00,VWS V13.01,2013-05-14 02:26:00,
2013-05-13 22:31:00,37.9,31.7,30.34,NW,315,0.4,2.7,79,0.00,,CLR,0.00,VWS V13.01,2013-05-14 02:31:00,
2013-05-13 22:36:00,37.9,31.3,30.35,NW,315,0.4,2.7,78,0.00,,CLR,0.00,VWS V13.01,2013-05-14 02:36:00,
2013-05-13 22:41:00,37.4,31.3,30.35,NW,315,0.4,2.7,78,0.00,,CLR,0.00,VWS V13.01,2013-05-14 02:41:00,
2013-05-13 22:46:00,37.2,31.0,30.35,NW,315,0.4,2.7,78,0.00,,CLR,0.00,VWS V13.01,2013-05-14 02:46:00,
2013-05-13 22:51:00,37.2,31.3,30.35,NW,315,0.4,2.7,78,0.00,,CLR,0.00,VWS V13.01,2013-05-14 02:51:00,
2013-05-13 22:56:00,37.2,30.9,30.35,NW,315,0.4,2.7,78,0.00,,CLR,0.00,VWS V13.01,2013-05-14 02:56:00,
2013-05-13 23:02:00,36.6,30.7,30.35,NW,315,0.4,2.7,79,0.00,,CLR,0.00,VWS V13.01,2013-05-14 03:02:00,
2013-05-13 23:07:00,36.3,30.6,30.35,NW,315,0.4,2.7,79,0.00,,CLR,0.00,VWS V13.01,2013-05-14 03:07:00,
2013-05-13 23:12:00,36.3,30.4,30.35,NW,315,0.4,2.7,79,0.00,,CLR,0.00,VWS V13.01,2013-05-14 03:12:00,
2013-05-13 23:17:00,36.1,30.4,30.35,NW,315,0.4,2.7,80,0.00,,CLR,0.00,VWS V13.01,2013-05-14 03:17:00,
2013-05-13 23:22:00,35.9,30.3,30.35,NW,315,0.4,2.7,80,0.00,,CLR,0.00,VWS V13.01,2013-05-14 03:22:00,
2013-05-13 23:27:00,35.7,30.3,30.35,NW,315,0.4,2.7,80,0.00,,CLR,0.00,VWS V13.01,2013-05-14 03:27:00,
2013-05-13 23:32:00,35.7,30.1,30.35,NW,315,0.4,2.7,80,0.00,,CLR,0.00,VWS V13.01,2013-05-14 03:32:00,
2013-05-13 23:37:00,35.4,30.0,30.35,NW,315,0.4,2.7,80,0.00,,CLR,0.00,VWS V13.01,2013-05-14 03:37:00,
2013-05-13 23:42:00,35.4,30.0,30.35,NW,315,0.4,2.7,80,0.00,,CLR,0.00,VWS V13.01,2013-05-14 03:42:00,
2013-05-13 23:47:00,35.4,30.2,30.35,NW,315,0.4,2.7,81,0.00,,CLR,0.00,VWS V13.01,2013-05-14 03:47:00,
2013-05-13 23:52:00,35.2,30.0,30.35,NW,315,0.4,2.7,81,0.00,,CLR,0.00,VWS V13.01,2013-05-14 03:52:00,
2013-05-13 23:57:00,35.2,30.0,30.35,NW,315,0.4,2.7,81,0.00,,CLR,0.00,VWS V13.01,2013-05-14 03:57:00,